sat.trackr.live / text

‹ back to catalog

STARLINK-3702

NORAD 52100 · 2022-029N

PAYLOAD ACTIVE UNKNOWN

§ Identity

Operator
Country
US
Launch date
2022-03-19
Launch site
AFETR
Launch vehicle
Mass (kg)
RCS (m²)

Purposes: comms

External: N2YO · Heavens-Above · Gunter

§ Orbital elements

Epoch: 2026-09-20T00:23:47.580288Z

Period
93.85 min
Inclination
53.1588°
Eccentricity
0.0001237
Mean motion
15.34393525 rev/d
Perigee alt
461.9 km
Apogee alt
463.6 km
Semi-major
6,840.9 km
B*
5.9704e-5
RAAN
280.0252°
Arg perigee
86.6232°
Mean anomaly
273.4912°
Rev number
25,022

§ Raw data

STARLINK-37021 52100U 22029N   26263.01652292  .00001641  00000+0  59704-4 0  99992 52100  53.1588 280.0252 0001237  86.6232 273.4912 15.34393525250228

JSON: /api/v1/satellites/52100 · /tle

For live sub-satellite position, see the globe view (requires WebGL).

§ Visibility from observer

Set your observer location to see the next 7 days of passes ≥ 10°. The values pass through the URL so the page stays shareable.

No JS? Fill the form by hand. The geolocation button needs JavaScript.